Weather History for Fayetteville, AR

Change the Weather History Date:

Saturday, December 22, 2012

  Actual Average Record
Temperature  
Mean Temperature 41 °F 36 °F  
Max Temperature 60 °F 47 °F 70 °F (1996)
Min Temperature 21 °F 26 °F -8 °F (1989)
Degree Days  
Heating Degree Days 24 29  
Month to date heating degree days 410 591  
Since 1 July heating degree days 1223 1420  
Moisture  
Dew Point 19 °F    
Average Humidity 55    
Maximum Humidity 96    
Minimum Humidity 14    
Precipitation  
Precipitation 0.00 in 0.11 in 1.02 in (2003)
Month to date precipitation 1.93 2.37  
Year to date precipitation 29.84 47.64  
Sea Level Pressure  
Sea Level Pressure 30.15 in    
Wind  
Wind Speed 9 mph (SSW)    
Max Wind Speed 23 mph    
Max Gust Speed 30 mph    
Visibility 10 miles    
Events      
T = Trace of Precipitation, MM = Missing Value Source: NWS Daily Summary

Daily Weather History Graph

Daily Weather History Graph

Search for Another Location

Airport:

Trip Planner

Search our weather history database for the weather conditions in past years. The results will help you decide how hot, cold, wet, or windy it might be!

Date:

Astronomy

Dec. 22, 2012 Rise Set
Actual Time 7:24 AM CST 5:06 PM CST
Civil Twilight 6:55 AM CST 5:35 PM CST
Nautical Twilight 6:23 AM CST 6:07 PM CST
Astronomical Twilight 5:52 AM CST 6:39 PM CST
Moon 1:19 PM CST (12/22) 2:15 AM CST (12/22)
Length of Visible Light 10h 40m
Length of Day
9h 42m
Waxing Gibbous, 74% of the Moon is Illuminated
Dec 22
Waxing Gibbous
Dec 28
Full
Jan 4
Last Quarter
Jan 11
New
Jan 18
First Quarter

Hourly Weather History & Observations

Time (CST) Temp. Windchill Dew Point Humidity Pressure Visibility Wind Dir Wind Speed Gust Speed Precip Events Conditions
12:53 AM 24.1 °F - 21.0 °F 88% 30.28 in 10.0 mi Calm Calm - N/A   Clear
1:53 AM 23.0 °F - 21.0 °F 92% 30.27 in 10.0 mi Calm Calm - N/A   Clear
2:53 AM 21.9 °F - 19.9 °F 92% 30.27 in 10.0 mi Calm Calm - N/A   Clear
3:53 AM 23.0 °F - 19.9 °F 88% 30.26 in 10.0 mi Calm Calm - N/A   Clear
4:53 AM 23.0 °F - 19.0 °F 85% 30.26 in 10.0 mi Calm Calm - N/A   Clear
5:53 AM 24.1 °F 17.0 °F 18.0 °F 77% 30.25 in 10.0 mi SSW 5.8 mph - N/A   Clear
6:53 AM 26.1 °F 18.4 °F 18.0 °F 71% 30.25 in 10.0 mi SSW 6.9 mph - N/A   Clear
7:53 AM 26.1 °F 21.9 °F 19.0 °F 75% 30.25 in 10.0 mi SSW 3.5 mph - N/A   Clear
8:53 AM 39.9 °F 37.8 °F 23.0 °F 51% 30.24 in 10.0 mi South 3.5 mph - N/A   Clear
9:53 AM 51.1 °F - 21.0 °F 31% 30.23 in 10.0 mi SSW 10.4 mph 17.3 mph N/A   Clear
10:53 AM 54.0 °F - 18.0 °F 24% 30.21 in 10.0 mi South 16.1 mph 24.2 mph N/A   Clear
11:53 AM 57.0 °F - 14.0 °F 18% 30.17 in 10.0 mi SW 15.0 mph 21.9 mph N/A   Clear
12:53 PM 59.0 °F - 10.9 °F 15% 30.13 in 10.0 mi SW 16.1 mph 20.7 mph N/A   Clear
1:53 PM 59.0 °F - 12.9 °F 16% 30.10 in 10.0 mi SW 16.1 mph 24.2 mph N/A   Clear
2:53 PM 57.9 °F - 15.1 °F 19% 30.07 in 10.0 mi South 16.1 mph 20.7 mph N/A   Clear
3:53 PM 57.0 °F - 16.0 °F 20% 30.06 in 10.0 mi SSW 16.1 mph 21.9 mph N/A   Clear
4:53 PM 55.0 °F - 16.0 °F 22% 30.07 in 10.0 mi SSW 10.4 mph - N/A   Clear
5:53 PM 53.1 °F - 17.1 °F 24% 30.06 in 10.0 mi SSW 11.5 mph - N/A   Clear
6:53 PM 53.1 °F - 17.1 °F 24% 30.06 in 10.0 mi SSW 10.4 mph 17.3 mph N/A   Clear
7:53 PM 52.0 °F - 19.0 °F 27% 30.05 in 10.0 mi SSW 11.5 mph - N/A   Clear
8:53 PM 53.1 °F - 21.9 °F 30% 30.04 in 10.0 mi SSW 11.5 mph - N/A   Clear
9:53 PM 51.1 °F - 24.1 °F 35% 30.02 in 10.0 mi South 9.2 mph - N/A   Clear
10:53 PM 50.0 °F - 28.9 °F 44% 30.02 in 10.0 mi SSW 9.2 mph - N/A   Clear
11:53 PM 50.0 °F - 30.9 °F 48% 30.00 in 10.0 mi South 10.4 mph - N/A   Clear